TimeCST,TemperatureF,Dew PointF,Humidity,Sea Level PressureIn,VisibilityMPH,Wind Direction,Wind SpeedMPH,Gust SpeedMPH,PrecipitationIn,Events,Conditions,WindDirDegrees,DateUTC
12:53 AM,30.9,24.1,76,30.10,8.0,ESE,4.6,-,N/A,,Overcast,120,2012-11-29 06:53:00
1:53 AM,28.9,21.9,75,30.10,10.0,ESE,4.6,-,N/A,,Partly Cloudy,110,2012-11-29 07:53:00
2:53 AM,28.9,21.9,75,30.10,9.0,ESE,3.5,-,N/A,,Clear,110,2012-11-29 08:53:00
3:53 AM,28.9,23.0,78,30.09,9.0,ESE,3.5,-,N/A,,Clear,120,2012-11-29 09:53:00
4:53 AM,28.0,21.9,78,30.09,9.0,Calm,Calm,-,N/A,,Clear,0,2012-11-29 10:53:00
5:53 AM,26.1,21.9,84,30.10,8.0,NE,4.6,-,N/A,,Clear,50,2012-11-29 11:53:00
6:53 AM,26.1,21.9,84,30.10,8.0,Calm,Calm,-,N/A,,Partly Cloudy,0,2012-11-29 12:53:00
7:53 AM,28.0,23.0,81,30.12,8.0,Calm,Calm,-,N/A,,Scattered Clouds,0,2012-11-29 13:53:00
8:53 AM,30.0,25.0,82,30.12,7.0,Calm,Calm,-,N/A,,Scattered Clouds,0,2012-11-29 14:53:00
9:53 AM,33.8,24.8,70,30.09,8.0,ENE,4.6,-,N/A,,Scattered Clouds,60,2012-11-29 15:53:00
10:53 AM,36.0,25.0,64,30.11,8.0,Variable,5.8,-,N/A,,Mostly Cloudy,0,2012-11-29 16:53:00
11:53 AM,37.0,24.1,59,30.09,9.0,ENE,11.5,-,N/A,,Mostly Cloudy,60,2012-11-29 17:53:00
12:53 PM,39.9,25.0,55,30.09,9.0,ENE,9.2,-,N/A,,Mostly Cloudy,70,2012-11-29 18:53:00
1:53 PM,39.9,25.0,55,30.09,9.0,ENE,12.7,-,N/A,,Mostly Cloudy,60,2012-11-29 19:53:00
2:53 PM,39.9,25.0,55,30.07,9.0,ENE,9.2,-,N/A,,Overcast,60,2012-11-29 20:53:00
3:53 PM,37.9,25.0,60,30.09,8.0,NE,11.5,-,N/A,,Overcast,50,2012-11-29 21:53:00
4:53 PM,37.0,26.1,65,30.08,9.0,NE,12.7,-,N/A,,Overcast,50,2012-11-29 22:53:00
5:53 PM,36.0,26.1,67,30.11,8.0,ENE,9.2,-,N/A,,Overcast,60,2012-11-29 23:53:00
6:53 PM,35.1,26.1,70,30.12,8.0,NE,13.8,-,N/A,,Overcast,40,2012-11-30 00:53:00
7:53 PM,33.1,26.1,75,30.13,8.0,NE,11.5,-,N/A,,Overcast,40,2012-11-30 01:53:00
8:53 PM,33.1,26.1,75,30.14,8.0,NE,9.2,-,N/A,,Overcast,50,2012-11-30 02:53:00
9:53 PM,33.1,26.1,75,30.12,8.0,ENE,10.4,-,N/A,,Overcast,60,2012-11-30 03:53:00
10:53 PM,32.0,26.1,79,30.13,8.0,NNE,10.4,-,N/A,,Overcast,30,2012-11-30 04:53:00
11:53 PM,32.0,26.1,79,30.12,8.0,ENE,9.2,-,N/A,,Overcast,60,2012-11-30 05:53:00